Regional Weather Roundup
Issued by NWS Charleston, SC

Current Version | Previous Version | Graphics & Text | Print | Product List | Glossary On
Versions: 1 2 3 4 5 6 7 8 9 10 11 12 13 14 15 16 17 18 19 20 21 22 23 24 25 26 27 28 29 30 31 32 33 34 35 36 37 38 39 40 41 42 43 44 45 46 47 48 49 50
000 ASUS42 KCHS 020626 RWRCHS REGIONAL WEATHER ROUNDUP NATIONAL WEATHER SERVICE CHARLESTON SC 100 AM EST MON MAR 02 2015 NOTE: "FAIR" INDICATES FEW OR NO CLOUDS BELOW 12,000 FEET WITH NO SIGNIFICANT WEATHER AND/OR OBSTRUCTIONS TO VISIBILITY. NOT ALL STATIONS ARE QUALITY CONTROLLED BY THE NATIONAL WEATHER SERVICE. USE DATA WITH CAUTION...ESPECIALLY DEWPOINT OBSERVATIONS. SCZ027-030-031-034>040-042>050-020700- ...SOUTHEAST SOUTH CAROLINA... CITY SKY/WX TMP DP RH WIND PRES REMARKS N CHARLESTON FOG 43 43 100 CALM 30.34F VSB 1/8 6HR MIN TEMP: 43; 6HR MAX TEMP: 44; WATERFRONT PRK N/A 43 N/A N/A N3 N/A MOUNT PLEASANT MIX PCPN 45 43 93 CALM 30.34F VSB 1/4 PINOPOLIS N/A 45 43 93 W5 30.27F MONCKS CORNER CLOUDY 45 43 93 CALM 30.34S FOG SUMMERVILLE CLOUDY 43 43 100 CALM 30.35F FOG BEAUFORT MCAS FOG 45 44 97 CALM 30.35F VSB 3/4 6HR MIN TEMP: 45; 6HR MAX TEMP: 46; BEAUFORT ARPT FOG 45 45 100 CALM 30.35S VSB 1/2 HILTON HEAD IS FOG 46 46 100 CALM 30.36F VSB 1/2 WALTERBORO CLOUDY 45 45 100 CALM 30.34F FOG ALLENDALE FOG 45 45 100 CALM 30.36R VSB 1/2 ...SOUTHERN MIDLANDS AND PEE DEE... CITY SKY/WX TMP DP RH WIND PRES REMARKS GEORGETOWN NOT AVBL KINGSTREE NOT AVBL ORANGEBURG CLOUDY 43 41 93 NW5 30.35S FOG 6HR MIN TEMP: 41; 6HR MAX TEMP: 43; 6HR PCP: 0.04; BARNWELL FOG 45 45 100 CALM 30.35F VSB 1 AIKEN FOG 43 43 100 SW7 30.37S VSB 1/2 MANNING CLOUDY N/A N/A N/A CALM 30.33F COLUMBIA CLOUDY 43 41 93 SW5 30.33F FOG 6HR MIN TEMP: 41; 6HR MAX TEMP: 43; SUMTER FOG 41 41 100 SW3 30.30F VSB 1 6HR MIN TEMP: 40; 6HR MAX TEMP: 41; 6HR PCP: 0.01; FLORENCE FOG 41 40 96 W5 30.33F VSB 1/2 6HR MIN TEMP: 39; 6HR MAX TEMP: 42; 6HR PCP: TRACE; MYRTLE BEACH CLOUDY 43 41 93 CALM 30.34F N MYRTLE BEACH CLOUDY 43 41 93 CALM 30.32F FOG 6HR MIN TEMP: 42; 6HR MAX TEMP: 43; 6HR PCP: 0.05; $$ GAZ063-065-086>088-099>101-113>116-118-119-134>141-150-020700- ...SOUTHEAST GEORGIA... CITY SKY/WX TMP DP RH WIND PRES REMARKS SAVANNAH ARPT CLOUDY 46 45 93 CALM 30.35F FOG 6HR MIN TEMP: 46; 6HR MAX TEMP: 49; 6HR PCP: TRACE; HUNTER AAF FOG 46 46 100 CALM 30.32F VSB 1 6HR MIN TEMP: 47; 6HR MAX TEMP: 49; 6HR PCP: 0.01; FORT STEWART CLOUDY 48 46 93 CALM 30.33F FOG 6HR MIN TEMP: 47; 6HR MAX TEMP: 49; 6HR PCP: 0.02; STATESBORO CLOUDY 46 46 100 CALM 30.35S FOG SYLVANIA FOG 45 45 100 NW5 30.36F VSB 3/4 CLAXTON FOG 46 46 100 CALM 30.36R VSB 1/2 ...CSRA...CENTRAL AND FAR SOUTHEAST GEORGIA... CITY SKY/WX TMP DP RH WIND PRES REMARKS THOMSON CLOUDY 44 44 100 S3 30.39F VSB 1/2 AUGUSTA-BUSH CLOUDY 43 42 97 NW6 30.36F FOG 6HR MIN TEMP: 42; 6HR MAX TEMP: 43; AUGUSTA-DANIEL FOG 44 42 93 CALM 30.35F VSB 1 SWAINSBORO FOG 46 46 100 CALM 30.37F VSB 1/2 VIDALIA CLOUDY 46 46 100 CALM 30.36F FOG EASTMAN FOG 46 46 100 CALM 30.39F VSB 1/2 HAZLEHURST FOG 50 50 100 CALM 30.35S VSB 1/2 ALMA FOG 50 49 96 W3 30.37R VSB 1/4 6HR MIN TEMP: 49; 6HR MAX TEMP: 53; WAYCROSS FOG 55 55 100 CALM 30.36S VSB 1/2 JESUP FOG 52 52 100 CALM 30.37R VSB 1/2 BAXLEY FOG 50 50 100 CALM 30.35F VSB 1 BRUNSWICK CLOUDY 52 52 100 CALM 30.36F VSB 1/2 SAINT SIMONS FOG 52 52 100 CALM 30.35F VSB 1/2 6HR MIN TEMP: 50; 6HR MAX TEMP: 52; $$ SCZ027-028-034-036>038-045-046-048>050-GAZ119-141-020700- ...LAKE AND SUPPLEMENTAL COASTAL OBSERVATIONS... STATION/POSITION TIME TEMP WIND PRES WAVE SWELL AIR SEA DIR/SP/G HT/PER HT/PER/DIR (UTC) (F) (DEG/KT/KT) (MB) (FT/S) (FT/S/D) UPR LAKE MARION NOT AVBL WINYAH BAY 0500 42 310/ 2 1026.0 LAKE MURRAY 0500 42 260/ 3/ 4 1027.1F ACE BASIN NERRS NOT AVBL FORT PULASKI 0500 47 49 310/ 6/ 7 1028.5F SAPELO ISLAND 0600 50 320/ 2 1028.0S $$ ANZ835-935-AMZ111-154-330-350-352-354-370-450-454-472-020700- ...C-MAN AND BUOY OBSERVATIONS... STATION/POSITION TIME TEMP WIND PRES WAVE SWELL AIR SEA DIR/SP/G HT/PER HT/PER/DIR (UTC) (F) (DEG/KT/KT) (MB) (FT/S) (FT/S/D) BUOY 41004 0550 55 68 10/ 4/ 6 1026.6F 5/ 9 5/ 9 BUOY 41008 0550 49 53 10/ 6/ 8 1027.6F 4/ 9 3/110/ 9 FOLLY BEACH CMAN 0600 44 CALM 1027.9F CAPERS NEARSHORE NOT AVBL FRIPP NEARSHORE 0500 46 350/ 2/ 4 1027.1F STATION/POSITION TIME TEMP WIND PRES WAVE SWELL AIR SEA DIR/SP/G HT/PER HT/PER/DIR (UTC) (F) (DEG/KT/KT) (MB) (FT/S) (FT/S/D) 5E ST. MARYS GA 0521 52 N/A 4/ 9 2/ 80/11 FRYING PAN BUOY 0550 53 62 330/ 6/ 8 1027.0F 5/ 7 5/120/ 7 BUOY 41025 NOT AVBL CAPE LOOKOUT NC 0600 47 230/ 3/ 4 1025.5F BUOY 41002 0550 70 72 190/ 16/ 17 1027.5F 7/ 8 5/ 90/ 8 BUOY 41010 0520 73 75 130/ 12/ 14 1026.7F ST AUGUSTINE FL 0600 52 360/ 12/ 13 1027.8F $$

USA.gov is the U.S. government's official web portal to all federal, state and local government web resources and services.